Location: Dumbrava
(45.8000°N, 22.7833°E)
Time: 06:51:38
(UTC+00:00)

Daily predictions for brighter satellites

Satellite Brightness Start Highest point End
(mag) Time Altitude Azimuth Time Altitude Azimuth Time Altitude Azimuth
BREEZE-M DEB (TANK) 2.5 18:58:14 10° SSW 19:00:10 22° SE 19:02:42 10° E
Cosmos 2360 Rocket 2.3 18:58:38 10° S 19:04:09 60° ESE 19:09:43 10° NNE
SPOT 1/Viking Rocket 3.8 19:00:56 10° SSE 19:05:56 54° ENE 19:10:57 10° N
Terra 3.6 19:03:30 10° ESE 19:06:50 19° ENE 19:10:12 10° NNE
KORONAS-FOTON 4.0 19:04:05 10° S 19:07:44 50° E 19:11:25 10° NNE
Cosmos 2322 Rocket 2.5 19:02:30 10° SSW 19:08:12 78° WNW 19:13:57 10° NNE
SL-16 R/B 2.9 19:02:38 10° SW 19:08:14 62° WNW 19:13:53 10° NNE
Cosmos 1726 3.4 19:04:49 10° NNW 19:08:14 39° W 19:11:38 10° SSW
FALCON 9 DEB 3.3 19:05:22 10° SSW 19:08:17 39° SE 19:11:12 10° ENE
CZ-2C R/B 4.1 19:05:58 10° NNE 19:10:38 50° E 19:15:15 10° S
Cosmos 1674 2.7 19:08:25 10° S 19:12:03 56° E 19:15:42 10° NNE
Cosmos 1459 Rocket 4.2 19:06:40 10° N 19:12:36 55° ENE 19:18:32 10° SSE
SPOT 5 4.0 19:09:24 10° SE 19:13:48 31° ENE 19:18:01 10° N
OBJECT-B 3.7 19:12:07 10° SW 19:13:55 14° W 19:15:44 10° WNW
Cosmos 1953 2.4 19:12:01 10° N 19:16:05 63° E 19:20:05 10° SSE
FALCON 9 DEB 3.4 19:13:16 10° SSW 19:16:09 35° SE 19:19:03 10° ENE
USA 245 4.4 19:11:27 10° SSE 19:16:26 61° ENE 19:22:18 10° N
Cosmos 1975 Rocket 3.0 19:12:31 10° S 19:16:52 74° E 19:21:16 10° NNE
FALCON 9 DEB 3.1 19:15:47 10° SW 19:18:46 46° SE 19:21:46 10° ENE
Cosmos 1741 Rocket 4.2 19:16:17 10° NNW 19:21:33 73° WSW 19:26:48 10° SSE
Meteor 1-16 Rocket 4.1 19:19:24 10° N 19:24:53 83° E 19:30:12 10° SSE
Lacrosse 5 3.8 19:21:39 10° WNW 19:25:24 21° WSW 19:29:10 10° S
Resurs 01 Rocket 2.3 19:23:40 10° S 19:27:57 52° W 19:32:17 10° NNW
Cosmos 1300 4.0 19:25:32 10° NNE 19:28:45 25° ENE 19:31:23 13° SE
Ariane Rocket 4.4 19:24:20 10° SSW 19:28:59 35° W 19:33:41 10° NNW
Cosmos 2322 4.0 19:26:19 10° S 19:31:41 47° ESE 19:37:05 10° NE
Aureole 1 Rocket 4.3 19:26:24 10° NNW 19:32:32 88° WSW 19:40:11 10° SSE
COSMOS 2428 3.4 19:28:20 10° SSE 19:33:24 34° ESE 19:38:31 10° NE
Cosmos 2278 Rocket 3.8 19:29:17 10° N 19:33:50 24° NE 19:38:22 10° E
Landsat 7 4.4 19:29:34 10° S 19:34:15 57° W 19:38:57 10° NNW
SPOT 3 Rocket 4.0 19:29:40 10° S 19:34:45 59° WSW 19:39:54 10° NNW
Cosmos 1844 Rocket 2.8 19:29:50 10° NNW 19:35:31 76° WSW 19:40:50 12° SSE
Cosmos 1340 3.2 19:32:47 12° SSE 19:36:00 39° E 19:39:32 10° NNE
Cosmos 1867 4.5 19:38:13 10° NNW 19:43:25 41° NE 19:48:15 12° ESE
BREEZE-M DEB (TANK) 1.9 19:40:02 10° WNW 19:43:39 70° SSW 19:44:52 22° SE
Cosmos 968 Rocket 4.1 19:44:47 10° N 19:49:41 44° ENE 19:53:29 16° SE
Cosmos 2123 Rocket 4.1 19:45:24 10° S 19:51:37 65° E 19:57:53 10° NNE
Cosmos 2061 Rocket 4.1 19:46:00 10° N 19:52:26 71° E 19:57:52 15° SSE
Cosmos 1110 Rocket 4.4 19:48:11 10° SSW 19:53:19 66° WNW 19:58:33 10° NNE
Cosmos 2233 Rocket 4.5 19:50:36 10° N 19:56:31 46° ENE 20:01:00 17° SE
JB-3 4.4 19:52:32 10° N 19:56:32 82° WNW 20:00:35 10° SSW
Cosmos 1908 4.1 19:53:22 10° NNW 19:57:05 46° W 20:00:43 10° SSW
Meteor 2-10 Rocket 4.4 19:53:40 10° N 19:58:17 34° ENE 20:01:28 17° SE
Cosmos 1544 Rocket 3.7 19:54:01 10° NNW 19:58:29 73° W 20:02:15 14° S
Cosmos 1626 2.4 19:55:29 10° SSW 19:59:08 67° W 20:02:50 10° N
Cosmos 1455 Rocket 4.3 19:58:38 10° NNW 20:02:48 40° W 20:06:56 10° SSW
ARIANE 5 R/B 2.8 20:01:01 15° S 20:04:38 71° WSW 20:09:08 10° NNW
ATLAS 3B R/B 2.6 20:01:32 10° SSW 20:08:04 86° SE 20:14:52 10° NE
BREEZE-M DEB (TANK) 3.0 20:05:57 10° WSW 20:08:33 74° NNW 20:14:39 10° ENE
Cosmos 2333 4.4 20:05:08 10° SSW 20:10:53 76° WNW 20:16:38 10° NNE
ATLAS CENTAUR R/B 4.2 20:10:23 16° ESE 20:11:57 18° E 20:17:20 10° ENE
Cosmos 1346 Rocket 3.7 20:11:36 23° SE 20:13:14 33° E 20:16:53 10° NNE
ATLAS CENTAUR R/B 2.0 20:11:20 10° NW 20:15:37 54° WSW 20:18:22 22° S
Cosmos 405 3.2 20:14:28 10° NNW 20:17:53 63° W 20:19:49 23° S
Cosmos 2016 Rocket 4.2 20:15:10 10° NNW 20:21:15 68° W 20:26:21 15° S
SL-4 R/B 2.3 20:18:32 10° SSW 20:22:29 40° SE 20:26:09 10° ENE
Meteor 2-5 Rocket 3.7 20:18:45 14° S 20:23:35 86° E 20:29:15 10° NNE
Cosmos 2219 Rocket 2.3 20:17:57 10° SSW 20:23:38 83° WNW 20:29:21 10° NNE
Cosmos 2333 Rocket 2.5 20:19:17 10° SSW 20:25:01 72° WNW 20:30:45 10° NNE
ERS-1 Rocket 3.3 20:24:07 18° S 20:27:48 59° W 20:32:48 10° NNW
Geosat 4.2 20:24:37 22° SSE 20:27:49 63° WSW 20:32:50 10° NNW
FALCON 9 DEB 3.6 20:25:03 10° WSW 20:28:08 55° NNW 20:31:13 10° NE
Cosmos 1025 Rocket 4.5 20:25:13 10° SW 20:29:15 35° WNW 20:33:17 10° N
CZ-4B DEB 4.2 20:30:34 36° S 20:31:44 79° WSW 20:34:55 10° NNW
Lacrosse 5 rocket 3.1 20:28:34 10° W 20:31:50 30° NNW 20:35:03 10° NE
Cosmos 1536 Rocket 4.0 20:28:12 13° SSW 20:32:04 62° W 20:36:30 10° N
USA 215 3.8 20:28:28 10° ENE 20:34:20 34° SE 20:38:13 19° S
Cosmos 2228 3.2 20:30:50 10° N 20:35:14 64° E 20:37:16 30° SSE
Cosmos 1725 Rocket 4.3 20:29:32 10° NNW 20:35:38 61° W 20:40:27 17° S
SL-24 R/B 4.3 20:33:26 10° N 20:38:16 88° W 20:41:24 23° S
DNEPR-1 R/B 4.5 20:37:42 10° NW 20:41:37 37° WSW 20:43:36 24° SSW
SL-16 R/B 3.9 20:42:05 15° ESE 20:43:03 16° E 20:46:20 10° ENE
Terra 2.2 20:41:19 23° S 20:44:10 57° W 20:48:53 10° NNW
Cosmos 2237 Rocket 2.5 20:41:59 26° SSE 20:44:43 46° ESE 20:50:04 10° NE
Cosmos 2360 Rocket 4.4 20:43:53 10° WSW 20:48:33 26° NW 20:53:15 10° N
SPOT 5 4.1 20:48:15 16° SSW 20:51:47 36° W 20:56:17 10° NNW
FALCON 9 DEB 4.4 20:48:53 10° W 20:51:50 38° NNW 20:54:47 10° NE
Cosmos 1455 2.7 20:50:22 10° N 20:54:05 47° ENE 20:55:06 37° ESE
Cosmos 1503 Rocket 4.1 20:49:35 10° NNW 20:54:58 70° ENE 20:57:38 30° SE
Meteor 1-24 Rocket 4.0 20:51:25 16° SSW 20:55:41 64° WNW 21:01:11 10° N
Cosmos 1184 Rocket 3.6 20:57:03 34° E 20:57:04 34° E 21:00:03 10° NNE
H-2A R/B 3.9 20:53:17 10° N 20:57:18 59° WNW 20:59:53 21° SW
GEOS 3 Rocket 4.3 20:57:02 18° ESE 21:00:53 50° NE 21:06:02 10° NNW
USA 267 4.1 21:02:18 10° E 21:08:31 48° NNE 21:14:44 10° NW
COSMOS 2428 3.9 21:12:07 10° SW 21:17:33 42° NW 21:23:02 10° NNE
Okean 1-7 Rocket 4.0 21:16:50 39° SE 21:17:58 49° E 21:22:15 10° NNE
Cosmos 2278 Rocket 2.3 21:12:47 10° NNW 21:18:25 67° WSW 21:20:55 34° S
Cosmos 2034 Rocket 4.3 21:16:18 10° N 21:22:21 55° ENE 21:25:17 30° SE
NOSS 0 Rocket 4.1 21:17:59 14° SW 21:23:25 74° WNW 21:29:42 10° NNE
Cosmos 389 Rocket 3.6 21:20:28 10° NNW 21:23:33 32° W 21:24:17 29° WSW
Cosmos 1726 Rocket 3.9 21:20:58 10° NNW 21:25:22 60° W 21:26:53 37° SSW
Cosmos 2058 Rocket 3.0 21:21:22 10° N 21:25:50 85° E 21:27:08 46° SSE
Cosmos 1867 4.4 21:21:57 10° NW 21:27:00 38° WSW 21:28:54 29° SSW
FAST Rocket 4.5 21:34:08 63° SE 21:34:29 70° E 21:39:02 10° NNE
Meteor 1-21 Rocket 4.2 21:32:05 35° S 21:34:33 79° E 21:40:18 10° NNE
SJ 16-02 2.5 21:34:47 10° N 21:38:47 34° ENE 21:40:30 25° ESE
Cosmos 1777 Rocket 4.1 21:35:19 10° NNW 21:40:38 73° ENE 21:42:43 37° SE
Spot 4 3.9 21:41:10 42° S 21:42:43 72° WSW 21:47:31 10° NNW
Cosmos 1943 Rocket 3.0 21:38:58 10° NNW 21:44:13 43° NE 21:47:23 22° ESE
Cosmos 1892 Rocket 4.3 21:43:59 30° SW 21:45:49 48° WNW 21:50:10 10° N
GP-B 4.2 21:43:33 10° NNE 21:47:33 32° E 21:48:34 29° ESE
Tsikada Rocket 4.1 21:49:23 35° SSE 21:51:54 60° E 21:57:58 10° NNE
Meteor 1-4 Rocket 2.4 21:48:53 10° N 21:52:21 68° ENE 21:52:29 67° E
USA 229 DEB 4.3 21:51:22 30° SE 21:52:50 33° ESE 21:58:41 10° NE
USA 229 4.3 21:51:30 29° SE 21:52:56 33° ESE 21:58:47 10° NE
Cosmos 1441 Rocket 3.5 21:54:42 49° SW 21:55:28 61° WNW 21:59:16 10° N
Cosmos 1980 4.4 21:51:14 15° SW 21:55:46 50° WNW 22:01:20 10° NNE
BREEZE-M DEB (TANK) 2.6 21:50:20 10° WSW 21:58:27 89° NNW 22:01:18 10° ENE
ALOS 2 2.5 21:57:54 53° S 21:58:55 84° WSW 22:03:20 10° NNW
MTI 4.5 21:57:43 10° NNE 22:00:09 43° ENE 22:00:09 43° ENE
NOSS 3-1 (C) 3.4 21:59:24 41° SSE 22:00:51 53° ESE 22:06:47 10° NE
SL-4 R/B 2.6 21:58:05 10° W 22:02:02 52° NNW 22:05:41 10° ENE
Cosmos 724 4.3 22:02:36 10° NW 22:08:48 83° WSW 22:11:23 37° SSE
Cosmos 1703 4.1 22:08:43 35° WSW 22:09:42 42° WNW 22:13:29 10° N
NOSS 2-3 (E) 3.8 22:11:09 47° SE 22:11:18 47° ESE 22:15:46 10° NE
Lacrosse 5 rocket 4.4 22:09:49 10° NW 22:11:51 14° N 22:13:54 10° NNE
NOSS 3-1 (A) 3.8 22:11:32 34° SE 22:12:30 37° ESE 22:18:00 10° NE
Cosmos 1626 Rocket 3.6 22:12:19 48° SSW 22:13:25 71° W 22:17:52 10° N
USA 215 3.3 22:11:10 10° NE 22:17:42 79° NNW 22:24:14 10° WSW
Cosmos 1408 4.1 22:18:54 24° E 22:19:04 24° E 22:22:06 10° NE
Cosmos 1825 4.3 22:19:42 15° E 22:20:10 15° E 22:22:26 10° NE
Cosmos 1602 Rocket 3.5 22:20:35 53° SSW 22:21:37 82° W 22:26:07 10° N
SL-16 R/B 2.2 22:23:55 35° SSW 22:26:24 82° WNW 22:32:07 10° NNE
Cosmos 2237 Rocket 3.7 22:23:58 10° WSW 22:28:56 32° NW 22:33:58 10° N
Cosmos 1758 Rocket 3.5 22:28:38 55° SSE 22:29:30 73° E 22:33:54 10° NNE
Cosmos-2242 3.1 22:28:10 10° N 22:32:36 72° E 22:33:34 51° SE
Cosmos 405 Rocket 4.1 22:35:09 25° E 22:35:22 25° E 22:38:27 10° NE
Cosmos 2279 Rocket 4.3 22:31:11 10° N 22:37:23 61° ENE 22:40:23 31° SSE
Cosmos 2369 Rocket 2.6 22:32:41 10° NNW 22:38:22 59° ENE 22:41:39 25° SE
GEOS 3 Rocket 4.4 22:38:08 34° SW 22:38:59 36° WSW 22:43:55 10° NW
Cosmos 1634 Rocket 4.0 22:34:31 10° N 22:40:52 83° W 22:43:33 37° S
Cosmos 468 Rocket 4.3 22:42:30 40° SSE 22:43:52 51° ESE 22:48:55 10° NNE
ATLAS CENTAUR R/B 4.0 22:40:44 12° WSW 22:45:57 69° NNW 23:00:59 10° NE
ATLAS 5 CENTAUR R/B 3.8 22:47:38 10° ESE 22:47:38 10° ESE 22:48:13 10° E
PSLV R/B 3.5 22:46:42 10° NNE 22:51:04 82° ESE 22:52:04 53° S
USA 267 3.2 22:46:54 22° SE 22:51:20 73° SW 22:57:54 10° NW
Cosmos 2058 4.2 22:50:55 25° ESE 22:51:47 28° E 22:55:18 10° NNE
NOSS 2-3 (D) 3.5 22:51:08 49° SW 22:52:13 83° NW 22:57:01 10° NE
Aureole 3 3.8 22:48:28 10° NNW 22:52:22 57° W 22:53:19 47° SW
Cosmos 1763 Rocket 3.5 22:55:46 44° S 22:57:14 65° ESE 23:02:19 10° NNE
Cosmos 1812 Rocket 4.4 22:54:39 10° NNW 22:58:38 35° W 22:59:22 33° WSW
Cosmos 2221 3.8 22:58:05 10° N 23:02:01 34° ENE 23:03:51 24° ESE
USA 307 4.4 23:03:09 23° ESE 23:03:09 23° ESE 23:05:53 10° ENE
BREEZE-M DEB (TANK) 4.0 22:58:23 10° WNW 23:02:46 69° NNE 23:18:16 10° E
Cosmos 2297 4.4 22:59:41 10° NW 23:04:51 38° WSW 23:06:11 33° SW
Thor Agena Rocket 4.0 23:02:30 10° N 23:07:37 54° WNW 23:09:46 32° SW
NOSS 2-3 (C) 4.0 23:07:22 33° WSW 23:09:05 58° NW 23:13:56 10° NNE
CREW DRAGON DEMO-1 DEB 4.4 23:10:06 26° NE 23:10:06 26° NE 23:11:28 10° NE
Nadezhda 4 Rocket 4.4 23:10:10 29° SSE 23:13:09 53° E 23:19:05 10° NNE
Resurs 1-4 Rocket 3.6 23:11:17 10° NE 23:15:47 27° E 23:18:23 19° SE
SJ 16-02 2.6 23:13:37 10° NW 23:17:12 25° W 23:17:27 25° WSW
FALCON 9 DEB 4.2 23:14:35 10° NW 23:17:52 45° NNE 23:21:09 10° E
USA 308 3.9 23:18:33 31° SE 23:18:33 31° SE 23:22:07 10° ENE
Exosat Rocket 3.8 23:20:17 33° SSW 23:23:18 89° W 23:28:35 10° NNE
YAOGAN 11 4.2 23:21:55 37° SSE 23:23:36 74° ENE 23:28:07 10° N
ADEOS II 4.3 23:22:12 10° NE 23:25:17 16° E 23:28:21 10° SE
In-Cosmos 22 Rocket 4.4 23:23:39 34° SW 23:25:56 61° WNW 23:31:22 10° N
Cosmos 1825 Rocket 4.3 23:25:14 33° WSW 23:26:31 41° WNW 23:30:46 10° N
Cosmos 1943 Rocket 3.0 23:23:00 10° NW 23:27:47 31° WSW 23:28:53 29° SW
Cosmos 1892 3.7 23:30:16 32° WSW 23:31:02 35° WNW 23:34:38 10° N
Cosmos 1932 4.3 23:25:59 10° NW 23:32:12 78° WSW 23:36:16 23° SSE
X-37B 1.3 23:33:13 43° ESE 23:33:13 43° ESE 23:35:29 10° E
Helios 1A 2.9 23:32:33 42° SSE 23:33:56 83° ENE 23:38:09 10° NNW
Cosmos 540 Rocket 3.4 23:32:30 39° S 23:34:24 76° ESE 23:39:31 10° NNE
USA 305 3.2 23:35:05 43° SSE 23:35:33 45° SE 23:39:38 10° ENE
NOSS 2-2 (E) 3.8 23:36:08 37° SE 23:36:17 37° ESE 23:39:41 10° NE
Cosmos 1437 Rocket 2.6 23:32:36 10° NNW 23:36:29 81° W 23:37:15 55° S
Cosmos 1869 4.3 23:33:57 10° NNW 23:37:36 32° W 23:38:08 30° WSW
CZ-2D R/B 3.0 23:32:51 10° NNE 23:37:44 39° E 23:40:23 24° SSE
Cosmos 1943 3.1 23:36:45 35° SSW 23:39:17 85° WNW 23:44:58 10° NNE
Cosmos 990 Rocket 4.5 23:36:35 10° NW 23:41:27 42° WSW 23:42:50 34° SW
EO 1 Del DPAF 4.1 23:38:18 10° N 23:41:46 38° WNW 23:42:38 33° WSW
SL-4 R/B 3.6 23:38:37 10° WNW 23:42:05 32° N 23:45:21 10° ENE
Lacrosse 4 Rocket 2.5 23:38:47 10° NNW 23:42:41 41° NE 23:46:31 10° SE
USA 229 DEB 4.0 23:38:46 19° WSW 23:43:23 58° NW 23:50:12 10° NE
USA 229 4.0 23:38:53 20° WSW 23:43:29 58° NW 23:50:18 10° NE
Aureole 3 Rocket 3.8 23:40:57 10° N 23:44:55 54° E 23:48:22 20° SSE
Cosmos 841 Rocket 3.4 23:44:06 36° SSW 23:46:13 82° ESE 23:51:24 10° NNE
DELTA 2 R/B (1) 3.9 23:47:09 34° SSW 23:48:43 42° S 23:53:55 10° ESE
Cosmos 1603 3.8 23:46:12 31° SW 23:49:01 70° WNW 23:54:41 10° NNE
NOSS 2-2 (C) 3.6 23:49:46 37° SE 23:50:10 39° ESE 23:53:33 10° NE
SL-16 R/B 2.8 23:46:03 15° SSE 23:51:17 66° ENE 23:57:25 10° N
Lacrosse 5 rocket 4.0 23:49:31 10° NNW 23:52:06 18° NNE 23:54:43 10° ENE
Cosmos 1408 4.2 23:53:09 21° W 23:53:57 23° WNW 23:56:57 10° NNW
Cosmos 1242 Rocket 2.4 23:50:39 10° N 23:54:16 90° W 23:55:13 47° S
UNK 4.3 23:51:07 18° SE 23:54:21 54° ENE 23:58:52 10° N
Cosmos 1825 3.0 23:54:28 33° WSW 23:55:17 38° WNW 23:58:51 10° N
